Location: Newark
(48.3983°N, 16.0611°E)
Time: 19:09:18
(UTC+00:00)

ISS - Pass Details

Date: 28 January 2020
Orbit: 416 x 422 km, 51.6° (Epoch: 20 February)

Event Time Altitude Azimuth Distance (km) Brightness Sun altitude
Rises 17:25:46 0° 272° (W) 2,377 1.7 -16.3°
Reaches altitude 10° 17:27:55 10° 278° (W) 1,511 0.2 -16.6°
Maximum altitude 17:31:14 48° 354° (N) 562 -3.2 -17.2°
Enters shadow 17:31:58 40° 35° (NE) 643 -3.2 -17.3°
